Location: Unspecified
(43.4354°N, 0.0000°E)
Time: 17:01:29
(UTC+00:00)

S-56A Canister/Altair - Pass Details

Date: 29 June 2019
Orbit: 632 x 2500 km, 38.9° (Epoch: 17 July)

Event Time Altitude Azimuth Distance (km) Brightness Sun altitude
Rises 17:56:34 0° 278° (W) 4,908 13.3 16.9°
Reaches altitude 10° 18:00:27 10° 272° (W) 3,602 12.9 16.3°
Maximum altitude 18:08:27 43° 206° (SSW) 1,478 9.3 14.9°
Drops below altitude 10° 18:13:57 10° 135° (SE) 2,477 9.7 13.9°
Sets 18:16:10 0° 128° (SE) 3,253 10.2 13.5°
